GW6237 Weather Reports


time (UTC)temp
C
wind
direction
speed
KPH
gust
KPH
rain 1hr
cm
rain 24hr
cm
rain mn
cm
humidity
%
barometer
mb
20260504214958 25 211 29.0 37.0 0.00 0.00 0.00 36 1002.7
20260504214458 25 227 24.1 41.8 0.00 0.00 0.00 39 1002.8
20260504213958 24 206 37.0 41.8 0.00 0.00 0.00 38 1002.8
20260504213458 25 229 30.6 40.2 0.00 0.00 0.00 38 1002.8
20260504212958 25 187 40.2 40.2 0.00 0.00 0.00 37 1002.9
20260504212458 25 180 24.1 40.2 0.00 0.00 0.00 40 1002.9
20260504211958 25 219 27.4 40.2 0.00 0.00 0.00 40 1003.1
20260504211458 25 221 33.8 37.0 0.00 0.00 0.00 38 1003.1
20260504210958 25 200 25.7 37.0 0.00 0.00 0.00 37 1003.1
20260504210458 25 208 22.5 41.8 0.00 0.00 0.00 37 1003.2
20260504205958 25 194 32.2 41.8 0.00 0.00 0.00 38 1003.3
20260504205458 25 195 29.0 40.2 0.00 0.00 0.00 37 1003.1
20260504204958 25 205 30.6 40.2 0.00 0.00 0.00 38 1003.3
20260504204458 25 208 30.6 40.2 0.00 0.00 0.00 38 1003.3
20260504203958 24 192 17.7 41.8 0.00 0.00 0.00 39 1003.5
20260504203458 24 212 24.1 41.8 0.00 0.00 0.00 37 1003.7
20260504202958 24 251 16.1 37.0 0.00 0.00 0.00 36 1003.9
20260504202459 25 204 14.5 40.2 0.00 0.00 0.00 43 1004.0
20260504201958 24 202 27.4 40.2 0.00 0.00 0.00 39 1004.0
20260504201458 24 222 19.3 41.8 0.00 0.00 0.00 38 1004.0
20260504200958 23 205 27.4 43.5 0.00 0.00 0.00 35 1004.1
20260504200458 25 243 32.2 43.5 0.00 0.00 0.00 37 1004.3
20260504195958 25 241 24.1 33.8 0.00 0.00 0.00 39 1004.3
20260504195458 25 218 32.2 41.8 0.00 0.00 0.00 42 1004.2
20260504194958 24 217 24.1 41.8 0.00 0.00 0.00 39 1004.4
20260504194458 24 215 27.4 43.5 0.00 0.00 0.00 41 1004.4
20260504193958 24 220 27.4 43.5 0.00 0.00 0.00 37 1004.4
20260504193458 24 216 22.5 40.2 0.00 0.00 0.00 38 1004.6
20260504192958 24 206 29.0 35.4 0.00 0.00 0.00 38 1004.6
20260504192503 24 228 32.2 37.0 0.00 0.00 0.00 38 1004.7
20260504191958 23 230 27.4 40.2 0.00 0.00 0.00 37 1004.9
20260504191458 24 207 25.7 40.2 0.00 0.00 0.00 42 1004.9
20260504190958 24 219 20.9 40.2 0.00 0.00 0.00 39 1004.9
20260504190458 24 193 24.1 35.4 0.00 0.00 0.00 40 1005.0
20260504185958 23 219 24.1 38.6 0.00 0.00 0.00 39 1005.1
20260504185458 23 235 27.4 38.6 0.00 0.00 0.00 38 1005.2
20260504184958 24 219 27.4 35.4 0.00 0.00 0.00 40 1005.2
20260504184458 23 205 25.7 37.0 0.00 0.00 0.00 42 1005.3
20260504183958 23 223 22.5 38.6 0.00 0.00 0.00 44 1005.4
20260504183458 23 243 27.4 41.8 0.00 0.00 0.00 39 1005.4
20260504182959 23 223 29.0 41.8 0.00 0.00 0.00 42 1005.4
20260504182458 23 262 29.0 38.6 0.00 0.00 0.00 39 1005.6
20260504181958 23 235 27.4 38.6 0.00 0.00 0.00 41 1005.6
20260504181458 23 255 32.2 38.6 0.00 0.00 0.00 39 1005.7
20260504180958 23 215 19.3 38.6 0.00 0.00 0.00 43 1005.7
20260504180458 23 191 30.6 38.6 0.00 0.00 0.00 39 1005.7
20260504175959 23 216 16.1 41.8 0.00 0.00 0.00 42 1005.8
20260504175459 23 220 27.4 41.8 0.00 0.00 0.00 39 1005.9
20260504174958 23 197 25.7 40.2 0.00 0.00 0.00 40 1005.9
20260504174458 23 229 6.4 38.6 0.00 0.00 0.00 43 1006.1
20260504173958 23 217 30.6 43.5 0.00 0.00 0.00 43 1006.0
20260504173458 22 239 33.8 43.5 0.00 0.00 0.00 42 1006.1
20260504172958 23 228 25.7 40.2 0.00 0.00 0.00 47 1006.4
20260504172458 23 237 22.5 38.6 0.00 0.00 0.00 43 1006.3
20260504171958 23 224 25.7 35.4 0.00 0.00 0.00 43 1006.4
20260504171458 22 236 25.7 38.6 0.00 0.00 0.00 47 1006.4
20260504170958 22 232 25.7 38.6 0.00 0.00 0.00 43 1006.5
20260504170458 22 250 27.4 38.6 0.00 0.00 0.00 43 1006.6
20260504150959 20 222 16.1 24.1 0.00 0.00 0.00 55 1007.3
20260504150458 19 208 11.3 24.1 0.00 0.00 0.00 55 1007.4
20260504140958 18 216 14.5 24.1 0.00 0.00 0.00 60 1007.7
20260504140459 18 234 12.9 24.1 0.00 0.00 0.00 59 1007.7
20260504130459 16 220 16.1 25.7 0.00 0.00 0.00 64 1007.6
20260504110458 14 232 12.9 17.7 0.00 0.00 0.00 69 1006.7
20260504100458 15 226 8.0 14.5 0.00 0.00 0.00 68 1006.9
20260504081958 15 226 9.7 12.9 0.00 0.00 0.00 65 1006.9
20260504081458 15 215 11.3 12.9 0.00 0.00 0.00 66 1007.3
20260504080958 15 204 8.0 12.9 0.00 0.00 0.00 66 1006.8
20260504080458 15 211 8.0 12.9 0.00 0.00 0.00 65 1007.1
20260504050458 17 197 12.9 16.1 0.00 0.00 0.00 59 1008.1
20260504045958 17 206 14.5 16.1 0.00 0.00 0.00 59 1008.1
20260504045458 17 207 12.9 16.1 0.00 0.00 0.00 59 1008.1
20260504044958 17 191 14.5 17.7 0.00 0.00 0.00 59 1008.1
20260504044458 17 208 14.5 17.7 0.00 0.00 0.00 59 1008.1
20260504043958 17 203 11.3 16.1 0.00 0.00 0.00 58 1008.0
20260504043458 17 195 11.3 14.5 0.00 0.00 0.00 58 1008.2
20260504042958 17 198 9.7 16.1 0.00 0.00 0.00 58 1008.3
20260504042459 17 198 11.3 16.1 0.00 0.00 0.00 58 1008.3
20260504041958 17 204 11.3 16.1 0.00 0.00 0.00 58 1008.3
20260504041458 17 208 11.3 16.1 0.00 0.00 0.00 58 1008.3
20260504040958 17 199 11.3 12.9 0.00 0.00 0.00 58 1008.4
20260504040458 17 209 12.9 12.9 0.00 0.00 0.00 59 1008.4
20260504035958 17 196 9.7 12.9 0.00 0.00 0.00 60 1008.4
20260504035458 17 190 8.0 11.3 0.00 0.00 0.00 61 1008.5
20260504034958 17 193 9.7 12.9 0.00 0.00 0.00 61 1008.5
20260504034458 17 188 9.7 12.9 0.00 0.00 0.00 60 1008.5
20260504033958 17 194 9.7 12.9 0.00 0.00 0.00 59 1008.5
20260504033458 18 190 11.3 11.3 0.00 0.00 0.00 59 1008.4
20260504032958 18 187 9.7 11.3 0.00 0.00 0.00 59 1008.5
20260504032458 18 187 9.7 11.3 0.00 0.00 0.00 60 1008.5
20260504031958 18 188 9.7 11.3 0.00 0.00 0.00 59 1008.5
20260504031458 18 188 8.0 11.3 0.00 0.00 0.00 59 1008.5
20260504030958 18 197 9.7 12.9 0.00 0.00 0.00 59 1008.4
20260504030458 18 188 9.7 12.9 0.00 0.00 0.00 59 1008.3
20260504025958 18 184 9.7 11.3 0.00 0.00 0.00 58 1008.4
20260504025458 17 192 9.7 11.3 0.00 0.00 0.00 58 1008.4
20260504024958 17 196 6.4 12.9 0.00 0.00 0.00 59 1008.3
20260504024458 18 198 8.0 12.9 0.00 0.00 0.00 58 1008.5
20260504023959 18 179 11.3 12.9 0.00 0.00 0.00 59 1008.4
20260504023458 18 190 11.3 12.9 0.00 0.00 0.00 59 1008.3
20260504022958 18 186 11.3 12.9 0.00 0.00 0.00 59 1008.3
20260504022458 18 197 9.7 12.9 0.00 0.00 0.00 58 1008.5
20260504021958 18 190 9.7 11.3 0.00 0.00 0.00 57 1008.3
20260504021458 18 187 9.7 11.3 0.00 0.00 0.00 57 1008.3
20260504020958 19 188 9.7 11.3 0.00 0.00 0.00 57 1008.3
20260504020458 18 183 9.7 11.3 0.00 0.00 0.00 56 1008.4
20260504015958 19 191 9.7 11.3 0.00 0.00 0.00 57 1008.0
20260504015458 19 193 9.7 11.3 0.00 0.00 0.00 55 1008.3
20260504014959 19 193 8.0 11.3 0.00 0.00 0.00 54 1008.3
20260504014458 20 186 11.3 11.3 0.00 0.00 0.00 51 1008.3
20260504013958 20 171 8.0 8.0 0.00 0.00 0.00 50 1008.2
20260504013458 20 172 8.0 9.7 0.00 0.00 0.00 51 1008.2
20260504012958 20 176 8.0 11.3 0.00 0.00 0.00 55 1008.1
20260504012458 20 180 9.7 11.3 0.00 0.00 0.00 51 1008.1
20260504011958 21 180 9.7 11.3 0.00 0.00 0.00 49 1008.0
20260504011458 20 181 11.3 11.3 0.00 0.00 0.00 49 1008.0
20260504010958 21 186 9.7 9.7 0.00 0.00 0.00 48 1008.0
20260504010458 21 186 9.7 9.7 0.00 0.00 0.00 47 1007.9
20260504005958 22 195 8.0 9.7 0.00 0.00 0.00 47 1007.9
20260504005459 22 189 9.7 9.7 0.00 0.00 0.00 47 1007.9
20260504004958 22 182 8.0 9.7 0.00 0.00 0.00 44 1007.9
20260504004458 22 195 8.0 9.7 0.00 0.00 0.00 43 1007.9
20260504003958 22 202 8.0 12.9 0.00 0.00 0.00 47 1008.0
20260504003458 23 213 8.0 12.9 0.00 0.00 0.00 42 1008.0
20260504002958 23 227 11.3 12.9 0.00 0.00 0.00 39 1008.0
20260504002458 23 227 8.0 12.9 0.00 0.00 0.00 38 1008.0
20260504001958 23 224 8.0 12.9 0.00 0.00 0.00 38 1008.1
20260504001458 23 228 9.7 12.9 0.00 0.00 0.00 39 1008.0
20260504000958 23 223 6.4 11.3 0.00 0.00 0.00 38 1008.0
20260504000458 24 223 11.3 12.9 0.00 0.00 0.00 38 1008.1
20260503235958 23 229 9.7 16.1 0.00 0.00 0.00 36 1008.0
20260503235458 24 228 11.3 17.7 0.00 0.00 0.00 35 1007.9
20260503234958 24 228 8.0 22.5 0.00 0.00 0.00 35 1008.0
20260503234458 24 221 9.7 22.5 0.00 0.00 0.00 34 1007.9
20260503233958 23 235 14.5 19.3 0.00 0.00 0.00 33 1007.8
20260503233458 24 235 9.7 19.3 0.00 0.00 0.00 33 1007.9
20260503232958 24 220 11.3 19.3 0.00 0.00 0.00 35 1007.9
20260503232458 23 222 11.3 19.3 0.00 0.00 0.00 34 1007.9
20260503231958 24 214 12.9 22.5 0.00 0.00 0.00 33 1008.0
20260503231459 24 215 17.7 22.5 0.00 0.00 0.00 35 1008.1
20260503230959 24 225 12.9 20.9 0.00 0.00 0.00 34 1008.2
20260503230458 24 237 16.1 20.9 0.00 0.00 0.00 39 1008.2
20260503225958 24 193 11.3 20.9 0.00 0.00 0.00 34 1008.2
20260503225458 24 244 16.1 22.5 0.00 0.00 0.00 34 1008.3
20260503224958 23 244 14.5 24.1 0.00 0.00 0.00 35 1008.3
20260503224458 23 236 16.1 24.1 0.00 0.00 0.00 36 1008.3
20260503223958 24 226 17.7 24.1 0.00 0.00 0.00 41 1008.4
20260503223458 25 204 20.9 24.1 0.00 0.00 0.00 35 1008.3
20260503222958 25 261 11.3 24.1 0.00 0.00 0.00 35 1008.4
20260503222458 24 204 20.9 24.1 0.00 0.00 0.00 32 1008.4
20260503221958 24 223 16.1 24.1 0.00 0.00 0.00 33 1008.5
20260503221458 23 222 19.3 24.1 0.00 0.00 0.00 34 1008.5
20260503220958 25 226 11.3 25.7 0.00 0.00 0.00 33 1008.6
20260503220458 24 259 17.7 25.7 0.00 0.00 0.00 38 1008.7
20260503215958 24 244 20.9 25.7 0.00 0.00 0.00 34 1008.8
20260503215459 23 244 14.5 22.5 0.00 0.00 0.00 32 1008.7